Flag for Spain Weather past 2 weeks in Málaga, Spain

Now
66 °F

Passing clouds.


Feels Like: 66 °F
Forecast: 67 / 81 °F
Wind: 6 mph from Northwest

Location: Malaga / Aeropuerto

Current Time: Sep 20, 2014 at 8:09:35 AM

Latest Report: Sep 20, 2014 at 7:30 AM


Visibility: N/A

Pressure: 29.98 "Hg

Humidity: 78%

Dew point: 59 °F

Location of MálagaLocation

Historic Weather in Málaga — Graph

°F

Málaga temperature yesterday

Maximum temperature yesterday: 79 °F (at 3:00 PM)
Minimum temperature yesterday: 63 °F (at 4:30 AM)
Average temperature yesterday: 69 °F

Past Weeks' High & Low Weather Summary

 TemperatureHumidityPressure
High95 °F (Sep 5, 1:30 PM)94% (Sep 9, 9:00 AM)30.01 "Hg (Sep 9, 9:00 AM)
Low61 °F (Sep 16, 6:30 AM)19% (Sep 5, 1:30 PM)29.80 "Hg (Sep 16, 5:00 AM)
Average77 °F57%29.91 "Hg
* Reported Sep 5 7:00 AM — Sep 20 7:00 AM, Málaga, Weather by CustomWeather, © 2014

Note: Actual official high and low records may vary slightly from our data, if they occured in-between our weather recording intervals... More about our weather records

Advertising

Málaga weather history for previous 24 hours

 ConditionsComfort  
Time TempWeatherWind HumidityBarometerVisibility
7:00 AM
Sep 20
66 °FPassing clouds.8 mph78%29.98 "HgN/A
6:30 AM66 °FPassing clouds.5 mph83%29.95 "HgN/A
6:00 AM66 °FPassing clouds.3 mph78%29.95 "HgN/A
5:30 AM68 °FPassing clouds.3 mph78%29.95 "HgN/A
5:00 AM66 °FPassing clouds.12 mph83%29.95 "HgN/A
4:30 AM66 °FPassing clouds.10 mph83%29.95 "HgN/A
4:00 AM64 °FPassing clouds.8 mph88%29.95 "HgN/A
3:00 AM66 °FPassing clouds.6 mph83%29.98 "HgN/A
2:30 AM66 °FPassing clouds.2 mph83%29.98 "HgN/A
2:00 AM68 °FPassing clouds.2 mph78%29.98 "HgN/A
1:30 AM66 °FPassing clouds.6 mph83%29.98 "HgN/A
1:00 AM68 °FPassing clouds.2 mph78%29.98 "HgN/A
12:30 AM68 °FPassing clouds.1 mph78%29.98 "HgN/A
12:00 AM70 °FPassing clouds.No wind73%29.98 "HgN/A
11:30 PM
Sep 19
70 °FPassing clouds.No wind73%29.98 "HgN/A
11:00 PM70 °FPassing clouds.2 mph73%29.98 "HgN/A
10:30 PM70 °FPassing clouds.No wind73%29.98 "HgN/A
10:00 PM70 °FPassing clouds.1 mph73%29.95 "HgN/A
9:30 PM70 °FPassing clouds.2 mph73%29.95 "HgN/A
9:00 PM70 °FPassing clouds.1 mph73%29.95 "HgN/A
8:30 PM72 °FPassing clouds.5 mph73%29.92 "HgN/A
8:00 PM73 °FPassing clouds.1 mph69%29.92 "HgN/A
7:30 PM70 °FPassing clouds.10 mph78%29.92 "HgN/A
7:00 PM70 °FPassing clouds.13 mph78%29.92 "HgN/A
6:30 PM72 °FPassing clouds.13 mph69%29.92 "HgN/A
6:00 PM72 °FPassing clouds.10 mph69%29.89 "HgN/A
5:30 PM72 °FPassing clouds.9 mph69%29.89 "HgN/A
5:00 PM75 °FPassing clouds.9 mph61%29.89 "HgN/A
4:30 PM75 °FPassing clouds.8 mph61%29.92 "HgN/A
4:00 PM73 °FPassing clouds.6 mph61%29.92 "HgN/A
3:30 PM79 °FPassing clouds.6 mph48%29.92 "HgN/A
3:00 PM79 °FPassing clouds.6 mph51%29.92 "HgN/A
2:30 PM75 °FPassing clouds.5 mph61%29.95 "HgN/A
2:00 PM72 °FPassing clouds.6 mph69%29.95 "HgN/A
1:30 PM72 °FPassing clouds.5 mph65%29.95 "HgN/A
1:00 PM70 °FPassing clouds.6 mph69%29.95 "HgN/A
12:30 PM70 °FPassing clouds.10 mph69%29.98 "HgN/A
12:00 PM72 °FPassing clouds.6 mph61%29.95 "HgN/A
11:30 AM73 °FPassing clouds.1 mph57%29.95 "HgN/A
11:00 AM70 °FPassing clouds.6 mph64%29.95 "HgN/A
10:30 AM70 °FPassing clouds.9 mph64%29.95 "HgN/A
10:00 AM68 °FPassing clouds.2 mph69%29.92 "HgN/A
9:30 AM66 °FPassing clouds.6 mph73%29.92 "HgN/A
9:00 AM63 °FPassing clouds.3 mph83%29.92 "HgN/A
8:30 AM63 °FPassing clouds.2 mph77%29.92 "HgN/A
8:00 AM63 °FPassing clouds.6 mph83%29.92 "HgN/A
Weather by CustomWeather, © 2014

See weather overviewHow to use our weather pages